Vorticity
4 4 5 6 6 5 7 6 10 9 11 9 5 3 4 4 2 16 11 11 13 10 8 8 8 2 7 10 14 16 10 8 15 8 13 8 23 8 6 12 11 5 15 8 -1 -7 12
5 4 5 6 6 6 6 6 8 11 10 13 7 6 -1 -1 -0 19 17 8 4 5 9 4 -2 9 13 4 19 8 18 5 13 16 8 10 11 9 6 14 7 26 17 9 7 -7 17
5 4 5 5 6 6 6 6 6 10 11 14 11 6 3 1 1 20 7 22 14 3 18 6 19 -3 20 17 28 6 27 11 10 13 10 3 11 13 9 8 15 35 2 24 -7 6 32
6 5 4 5 6 6 6 7 7 7 12 12 15 9 7 -0 6 6 5 16 21 5 23 23 20 17 24 24 14 5 7 14 13 13 10 5 15 16 14 10 38 11 2 -1 16 16 20
6 6 4 4 5 6 6 6 8 7 9 13 13 14 9 6 2 10 7 -15 31 11 14 11 -0 3 -2 10 40 9 43 28 17 11 8 14 12 1 33 11 13 -11 32 4 2 11 17
6 6 6 5 5 5 6 6 8 8 7 11 14 13 14 9 5 11 3 -4 12 12 0 -15 0 7 1 8 2 14 29 5 29 32 20 23 6 -2 27 38 16 20 13 2 3 19 4
5 6 7 5 5 5 6 7 7 9 7 10 15 17 11 14 10 0 13 8 5 4 0 9 15 10 4 18 5 6 22 -5 3 -1 24 6 16 31 38 -25 41 -12 32 7 13 3 20
5 5 6 6 5 4 5 6 7 8 6 9 10 17 6 16 11 8 -1 -5 -1 6 4 3 5 10 4 22 3 9 11 -1 8 16 29 -13 28 -8 3 20 -16 8 23 0 20 7 3
5 5 6 6 6 5 5 5 7 8 9 7 11 16 11 5 9 12 13 5 2 -5 4 10 4 5 8 9 12 5 10 10 12 16 -7 25 -4 -8 5 26 11 19 25 -3 7 8 5
5 5 6 6 7 5 5 5 7 8 9 6 9 12 18 10 9 4 9 13 11 1 5 -7 11 2 10 3 19 22 11 1 14 9 9 -6 9 7 16 -2 20 0 2 12 19 10 -2
5 5 6 6 7 7 5 4 6 8 8 9 6 11 16 12 11 6 6 10 11 10 5 6 4 8 6 12 11 5 -0 15 17 25 15 13 12 6 25 11 5 17 15 11 7 15 2
5 5 5 6 7 8 6 4 5 7 9 9 6 9 11 14 12 8 8 5 13 11 5 6 8 14 11 15 12 13 16 9 10 11 15 4 15 23 5 14 0 16 27 21 17 11 -10
7 6 5 5 6 7 8 5 5 6 9 9 9 6 10 11 13 11 8 13 12 18 7 -3 5 0 7 18 11 14 4 3 7 2 4 9 18 7 14 15 22 0 17 8 2 7 6
5 6 6 5 6 7 8 8 5 5 8 10 8 6 8 13 13 11 10 12 13 2 11 4 5 8 8 4 7 12 13 -2 3 4 -0 12 -7 5 27 -3 24 13 -2 -9 12 8 18
3 3 5 6 6 7 8 9 6 4 6 10 9 8 6 5 10 10 17 12 10 5 6 9 4 8 13 9 7 -2 7 13 7 7 10 3 11 5 15 11 -7 18 10 -1 7 10 1
1 3 3 4 5 6 7 8 8 5 4 9 10 7 6 8 7 10 14 14 16 9 10 8 11 7 10 15 10 8 14 14 9 13 15 15 8 5 9 5 17 11 3 7 8 6 6
-0 1 3 3 4 6 6 8 9 7 4 5 9 8 3 9 10 8 12 13 11 11 10 9 10 9 6 9 12 10 12 6 12 6 10 4 10 14 -1 19 8 7 5 6 10 11 7
3 1 1 2 4 4 6 7 9 9 5 4 6 10 8 8 11 7 8 11 10 8 6 8 6 9 8 10 9 7 13 15 10 15 10 13 10 6 10 8 6 7 9 9 5 17 12
2 3 3 3 3 4 4 7 7 10 8 5 5 7 13 6 9 7 7 6 8 9 10 8 11 11 8 15 2 12 9 9 9 15 15 11 13 8 8 9 11 7 9 8 10 2 8
5 4 2 3 3 4 3 5 8 8 9 7 6 6 5 10 11 6 7 12 6 8 8 7 7 8 7 8 10 4 8 10 10 10 9 12 10 11 12 14 8 5 4 8 3 7 14
4 4 4 3 2 4 4 3 6 8 8 8 8 7 5 -7 2 8 6 3 8 6 7 8 6 4 9 9 13 4 6 9 13 6 5 8 13 7 5 8 7 7 6 5 5 -1 5
3 5 4 3 4 3 3 4 4 7 9 9 7 5 7 8 6 7 6 6 6 8 5 6 8 5 6 9 7 6 5 5 13 -3 4 5 8 11 6 19 10 4 10 16 8 9 8
4 4 4 4 3 3 3 3 3 5 8 7 7 7 6 4 7 9 7 8 5 8 12 12 9 9 4 5 6 3 5 5 4 6 6 18 4 8 17 -7 14 39 -3 9 28 23 17
5 4 4 5 4 4 4 3 3 4 6 8 8 8 7 4 5 7 7 7 8 6 9 8 6 7 6 5 5 6 6 8 9 5 7 6 8 15 3 26 9 -2 5 10 5 1 -1
5 9 4 6 6 5 4 4 3 4 5 8 7 8 7 6 6 7 7 6 7 7 9 7 7 7 8 8 9 22 17 23 23 17 12 14 20 7 10 6 -3 22 15 10 9 13 9
15 8 7 4 7 6 4 5 3 4 5 6 8 8 7 6 5 6 5 6 5 6 8 8 9 9 9 6 7 13 1 -5 18 10 4 1 5 3 13 8 -2 2 7 3 -2 3 13
17 15 8 4 6 7 5 4 4 4 5 6 7 8 9 7 7 3 3 6 10 9 5 8 9 15 9 8 8 10 15 -8 5 10 14 18 19 7 10 -0 19 9 9 4 21 -2 8
18 19 19 10 4 9 6 5 4 4 5 7 7 9 8 9 8 5 10 11 11 9 8 8 14 6 11 15 11 10 17 9 15 1 2 6 11 9 21 8 18 24 19 3 -7 1 -2
1 13 13 16 6 4 12 5 4 5 6 6 7 9 8 9 -2 19 8 5 7 8 5 3 2 3 -4 -0 5 15 9 4 11 3 18 7 -2 -9 -7 -14 -18 -1 -12 -10 5 12 3
Height
3163 3160 3157 3154 3151 3147 3143 3140 3136 3132 3129 3126 3124 3120 3116 3112 3107 3101 3096 3092 3088 3085 3082 3081 3078 3076 3074 3072 3069 3067 3065 3065 3066 3067 3069 3073 3076 3080 3084 3087 3092 3096 3101 3108 3117 3120 3123
3163 3161 3158 3155 3152 3148 3144 3140 3137 3133 3129 3126 3124 3121 3117 3113 3108 3102 3098 3094 3091 3087 3085 3083 3080 3076 3074 3071 3066 3063 3063 3064 3065 3067 3068 3072 3075 3081 3085 3088 3091 3095 3102 3108 3112 3116 3120
3163 3161 3159 3156 3153 3149 3145 3141 3137 3133 3129 3126 3123 3121 3118 3115 3110 3105 3101 3096 3091 3089 3086 3084 3081 3076 3072 3070 3064 3063 3061 3063 3064 3067 3069 3072 3075 3078 3083 3087 3092 3097 3101 3107 3110 3115 3118
3164 3161 3159 3156 3153 3150 3146 3142 3137 3134 3130 3126 3123 3120 3118 3116 3113 3108 3104 3098 3093 3090 3087 3084 3080 3077 3073 3068 3064 3063 3062 3062 3063 3065 3068 3072 3075 3078 3082 3086 3092 3097 3102 3106 3110 3112 3115
3165 3162 3160 3157 3154 3150 3146 3142 3138 3134 3130 3126 3123 3120 3118 3117 3115 3111 3107 3103 3097 3094 3089 3087 3083 3079 3077 3072 3067 3064 3060 3060 3062 3064 3068 3071 3073 3076 3079 3084 3093 3096 3098 3102 3108 3111 3113
3164 3163 3161 3158 3155 3151 3147 3143 3138 3134 3131 3127 3123 3120 3118 3116 3115 3113 3108 3106 3102 3098 3094 3089 3086 3085 3083 3078 3073 3070 3065 3064 3064 3064 3068 3072 3074 3075 3076 3080 3083 3090 3096 3102 3106 3110 3113
3164 3162 3160 3158 3155 3152 3148 3144 3139 3135 3131 3127 3123 3120 3117 3116 3114 3112 3109 3107 3108 3104 3098 3093 3092 3088 3085 3081 3078 3075 3072 3070 3069 3069 3072 3073 3076 3075 3080 3084 3089 3095 3098 3101 3105 3109 3113
3164 3162 3160 3158 3155 3152 3148 3144 3140 3136 3132 3128 3124 3121 3118 3115 3114 3112 3111 3108 3106 3105 3100 3097 3095 3092 3089 3084 3083 3081 3079 3078 3077 3077 3076 3077 3078 3082 3086 3089 3092 3095 3099 3102 3105 3109 3114
3164 3162 3160 3157 3155 3152 3149 3145 3141 3137 3133 3129 3124 3121 3118 3116 3113 3112 3110 3108 3106 3105 3103 3101 3098 3095 3093 3091 3087 3085 3085 3083 3082 3083 3083 3083 3087 3086 3087 3090 3094 3096 3099 3102 3105 3109 3115
3163 3162 3159 3157 3154 3152 3149 3145 3141 3137 3133 3130 3126 3122 3119 3116 3115 3112 3110 3108 3106 3105 3104 3104 3100 3098 3095 3092 3090 3088 3087 3087 3085 3086 3086 3087 3088 3089 3090 3092 3094 3096 3099 3103 3107 3109 3114
3162 3161 3158 3156 3153 3151 3149 3146 3142 3137 3134 3130 3126 3123 3119 3117 3115 3113 3111 3107 3106 3105 3107 3106 3103 3101 3097 3096 3094 3092 3090 3089 3089 3089 3091 3091 3090 3091 3091 3092 3094 3097 3099 3103 3107 3110 3114
3160 3159 3158 3155 3152 3150 3147 3145 3142 3138 3134 3130 3127 3123 3119 3118 3116 3114 3111 3108 3107 3108 3106 3106 3104 3102 3100 3097 3095 3094 3092 3094 3092 3092 3091 3093 3094 3093 3093 3094 3094 3096 3100 3104 3107 3111 3115
3158 3157 3156 3154 3152 3148 3146 3144 3141 3138 3134 3131 3127 3124 3120 3118 3116 3114 3112 3110 3109 3105 3109 3107 3104 3102 3100 3099 3098 3097 3095 3095 3096 3096 3094 3094 3095 3095 3095 3097 3098 3099 3102 3107 3115 3115 3115
3156 3155 3154 3152 3151 3148 3145 3142 3140 3138 3134 3131 3127 3124 3122 3118 3116 3114 3113 3112 3109 3109 3107 3106 3104 3103 3101 3100 3100 3099 3098 3097 3095 3096 3096 3096 3097 3096 3097 3098 3099 3101 3102 3102 3111 3114 3112
3154 3153 3152 3150 3148 3146 3144 3141 3139 3137 3134 3131 3127 3124 3122 3119 3117 3114 3114 3112 3110 3110 3109 3107 3105 3104 3102 3101 3101 3101 3099 3098 3097 3096 3097 3096 3097 3096 3097 3098 3100 3101 3101 3103 3102 3107 3112
3151 3150 3149 3148 3146 3144 3142 3140 3137 3135 3133 3130 3127 3124 3122 3121 3117 3115 3114 3112 3110 3110 3109 3107 3106 3105 3104 3102 3102 3100 3100 3098 3097 3096 3097 3097 3096 3097 3098 3098 3099 3099 3101 3102 3103 3111 3112
3146 3145 3145 3144 3143 3141 3139 3137 3135 3133 3131 3130 3127 3124 3122 3120 3118 3116 3114 3113 3111 3110 3109 3109 3106 3105 3105 3104 3103 3101 3101 3101 3099 3098 3097 3096 3098 3099 3097 3097 3098 3100 3100 3101 3104 3105 3104
3139 3139 3140 3140 3139 3138 3136 3134 3133 3131 3129 3128 3126 3124 3121 3119 3119 3116 3115 3113 3112 3111 3110 3109 3108 3106 3105 3105 3104 3102 3102 3101 3099 3098 3098 3097 3096 3096 3096 3096 3097 3098 3099 3102 3103 3103 3100
3131 3131 3133 3134 3134 3133 3133 3131 3129 3128 3126 3125 3124 3122 3120 3119 3117 3116 3115 3113 3112 3111 3110 3109 3109 3108 3106 3105 3105 3104 3103 3102 3101 3100 3099 3098 3097 3096 3096 3099 3097 3097 3099 3100 3100 3097 3095
3121 3123 3124 3126 3127 3128 3128 3127 3125 3124 3123 3123 3122 3121 3119 3117 3116 3115 3114 3113 3112 3110 3110 3109 3108 3108 3107 3106 3105 3105 3104 3103 3101 3100 3099 3099 3098 3098 3099 3099 3100 3099 3100 3099 3098 3097 3096
3109 3112 3114 3116 3118 3121 3121 3121 3121 3119 3119 3119 3118 3117 3116 3115 3114 3113 3112 3111 3110 3109 3108 3108 3107 3107 3107 3106 3105 3105 3104 3103 3103 3102 3100 3100 3099 3099 3098 3097 3097 3096 3096 3096 3096 3096 3097
3095 3100 3103 3106 3109 3111 3113 3113 3115 3114 3114 3114 3113 3113 3112 3112 3111 3111 3110 3109 3107 3107 3107 3106 3106 3105 3105 3105 3105 3104 3103 3102 3101 3101 3100 3099 3099 3098 3096 3095 3094 3093 3093 3092 3091 3092 3093
3080 3084 3089 3093 3096 3101 3103 3105 3105 3108 3108 3107 3107 3107 3107 3106 3106 3107 3107 3106 3105 3105 3104 3104 3104 3103 3103 3103 3102 3101 3100 3099 3099 3097 3096 3096 3095 3095 3092 3092 3091 3091 3089 3089 3088 3088 3090
3062 3068 3073 3080 3084 3088 3092 3095 3096 3097 3100 3101 3101 3101 3101 3099 3100 3101 3101 3102 3102 3102 3101 3101 3101 3101 3101 3100 3099 3098 3097 3096 3094 3094 3093 3092 3092 3092 3089 3089 3090 3087 3087 3087 3087 3088 3088
3042 3050 3057 3063 3070 3074 3079 3083 3085 3087 3089 3091 3092 3094 3093 3092 3093 3095 3096 3096 3097 3097 3098 3098 3097 3098 3098 3098 3097 3095 3094 3092 3090 3089 3089 3089 3090 3090 3089 3088 3087 3084 3083 3085 3085 3087 3086
3019 3029 3037 3045 3053 3059 3064 3069 3073 3075 3078 3080 3082 3084 3085 3086 3086 3088 3089 3090 3090 3091 3092 3092 3093 3093 3093 3093 3093 3091 3090 3089 3089 3087 3087 3087 3087 3089 3088 3088 3086 3082 3081 3081 3082 3083 3083
2997 3006 3016 3026 3034 3042 3049 3055 3059 3063 3066 3070 3072 3074 3076 3076 3078 3080 3081 3082 3084 3084 3085 3086 3087 3088 3088 3087 3087 3087 3086 3086 3085 3083 3083 3083 3083 3083 3083 3084 3081 3079 3079 3079 3082 3084 3081
2975 2983 2993 3005 3015 3023 3033 3039 3045 3049 3053 3057 3061 3063 3066 3066 3069 3071 3072 3074 3075 3077 3078 3080 3082 3082 3082 3082 3082 3081 3079 3079 3079 3078 3078 3080 3081 3080 3080 3081 3077 3074 3075 3079 3078 3076 3076
2952 2960 2971 2983 2994 3005 3014 3023 3030 3034 3040 3044 3048 3052 3054 3057 3060 3061 3063 3065 3067 3069 3071 3071 3074 3076 3076 3076 3076 3075 3074 3073 3073 3074 3074 3077 3077 3078 3078 3074 3072 3071 3071 3071 3071 3070 3069